Time,TemperatureF,DewpointF,PressureIn,WindDirection,WindDirectionDegrees,WindSpeedMPH,WindSpeedGustMPH,Humidity,HourlyPrecipIn,Conditions,Clouds,dailyrainin,SolarRadiationWatts/m^2,SoftwareType,DateUTC
2013-04-16 00:02:00,49.0,43.0,-100.00,West,281,0.0,8.0,79,0.00,,,0.01,0.000000,,2013-04-16 07:02:00,
2013-04-16 00:11:00,49.0,43.0,-100.00,West,281,0.0,8.0,79,0.00,,,0.01,0.000000,,2013-04-16 07:11:00,
2013-04-16 00:42:00,48.0,42.0,-100.00,WNW,285,3.0,9.0,81,0.00,,,0.01,0.000000,,2013-04-16 07:42:00,
2013-04-16 00:53:00,48.0,42.0,-100.00,WNW,285,3.0,9.0,81,0.00,,,0.01,0.000000,,2013-04-16 07:53:00,
2013-04-16 01:02:00,48.0,42.0,-100.00,WNW,285,3.0,9.0,81,0.00,,,0.01,0.000000,,2013-04-16 08:02:00,
2013-04-16 01:11:00,48.0,42.0,-100.00,WNW,285,3.0,9.0,81,0.00,,,0.01,0.000000,,2013-04-16 08:11:00,
2013-04-16 01:42:00,47.0,41.0,-100.00,NE,51,0.0,5.0,80,0.00,,,0.00,0.000000,,2013-04-16 08:42:00,
2013-04-16 01:52:00,47.0,41.0,-100.00,NE,51,0.0,5.0,80,0.00,,,0.00,0.000000,,2013-04-16 08:52:00,
2013-04-16 02:02:00,47.0,41.0,-100.00,NE,51,0.0,5.0,80,0.00,,,0.00,0.000000,,2013-04-16 09:02:00,
2013-04-16 02:11:00,47.0,41.0,-100.00,NE,51,0.0,5.0,80,0.00,,,0.00,0.000000,,2013-04-16 09:11:00,
2013-04-16 02:43:00,46.0,40.0,-100.00,West,281,3.0,10.0,79,0.00,,,0.00,0.000000,,2013-04-16 09:43:00,
2013-04-16 02:53:00,46.0,40.0,-100.00,West,281,3.0,10.0,79,0.00,,,0.00,0.000000,,2013-04-16 09:53:00,
2013-04-16 03:03:00,46.0,40.0,-100.00,West,281,3.0,10.0,79,0.00,,,0.00,0.000000,,2013-04-16 10:03:00,
2013-04-16 03:12:00,46.0,40.0,-100.00,West,281,3.0,10.0,79,0.00,,,0.00,0.000000,,2013-04-16 10:12:00,
2013-04-16 03:43:00,47.0,39.0,-100.00,West,277,2.0,8.0,75,0.00,,,0.00,0.000000,,2013-04-16 10:43:00,
2013-04-16 03:53:00,47.0,39.0,-100.00,West,277,2.0,8.0,75,0.00,,,0.00,0.000000,,2013-04-16 10:53:00,
2013-04-16 04:02:00,47.0,39.0,-100.00,West,277,2.0,8.0,75,0.00,,,0.00,0.000000,,2013-04-16 11:02:00,
2013-04-16 04:12:00,47.0,39.0,-100.00,West,277,2.0,8.0,75,0.00,,,0.00,0.000000,,2013-04-16 11:12:00,
2013-04-16 04:32:00,47.0,39.0,-100.00,ENE,68,0.0,8.0,75,0.00,,,0.00,0.000000,,2013-04-16 11:32:00,
2013-04-16 04:42:00,47.0,39.0,-100.00,ENE,68,0.0,8.0,75,0.00,,,0.00,0.000000,,2013-04-16 11:42:00,
2013-04-16 04:52:00,47.0,39.0,-100.00,ENE,68,0.0,8.0,75,0.00,,,0.00,0.000000,,2013-04-16 11:52:00,
2013-04-16 05:02:00,47.0,39.0,-100.00,ENE,68,0.0,8.0,75,0.00,,,0.00,0.000000,,2013-04-16 12:02:00,
2013-04-16 05:12:00,47.0,39.0,-100.00,ENE,68,0.0,8.0,75,0.00,,,0.00,0.000000,,2013-04-16 12:12:00,
2013-04-16 05:42:00,46.0,39.0,-100.00,NNW,343,0.0,5.0,77,0.00,,,0.00,0.000000,,2013-04-16 12:42:00,
2013-04-16 05:52:00,46.0,39.0,-100.00,NNW,343,0.0,5.0,77,0.00,,,0.00,0.000000,,2013-04-16 12:52:00,
2013-04-16 06:02:00,46.0,39.0,-100.00,NNW,343,0.0,5.0,77,0.00,,,0.00,0.000000,,2013-04-16 13:02:00,
2013-04-16 06:12:00,46.0,39.0,-100.00,NNW,343,0.0,5.0,77,0.00,,,0.00,0.000000,,2013-04-16 13:12:00,
2013-04-16 06:42:00,45.0,39.0,-100.00,East,90,0.0,8.0,79,0.00,,,0.00,0.000000,,2013-04-16 13:42:00,
2013-04-16 06:52:00,45.0,39.0,-100.00,East,90,0.0,8.0,79,0.00,,,0.00,0.000000,,2013-04-16 13:52:00,
2013-04-16 07:02:00,45.0,39.0,-100.00,East,90,0.0,8.0,79,0.00,,,0.00,0.000000,,2013-04-16 14:02:00,
2013-04-16 07:12:00,45.0,39.0,-100.00,East,90,0.0,8.0,79,0.00,,,0.00,0.000000,,2013-04-16 14:12:00,
2013-04-16 07:42:00,46.0,38.0,-100.00,East,89,1.0,6.0,73,0.00,,,0.00,31.000000,,2013-04-16 14:42:00,
2013-04-16 07:52:00,46.0,38.0,-100.00,East,89,1.0,6.0,73,0.00,,,0.00,31.000000,,2013-04-16 14:52:00,
2013-04-16 08:02:00,46.0,38.0,-100.00,East,89,1.0,6.0,73,0.00,,,0.00,31.000000,,2013-04-16 15:02:00,
2013-04-16 08:12:00,46.0,38.0,-100.00,East,89,1.0,6.0,73,0.00,,,0.00,31.000000,,2013-04-16 15:12:00,
2013-04-16 08:43:00,47.0,36.0,-100.00,North,3,0.0,5.0,65,0.00,,,0.00,100.000000,,2013-04-16 15:43:00,
2013-04-16 08:53:00,47.0,36.0,-100.00,North,3,0.0,5.0,65,0.00,,,0.00,100.000000,,2013-04-16 15:53:00,
2013-04-16 09:03:00,47.0,36.0,-100.00,North,3,0.0,5.0,65,0.00,,,0.00,100.000000,,2013-04-16 16:03:00,
2013-04-16 09:12:00,47.0,36.0,-100.00,North,3,0.0,5.0,65,0.00,,,0.00,100.000000,,2013-04-16 16:12:00,
2013-04-16 09:42:00,53.0,40.0,-100.00,NNW,346,1.0,6.0,61,0.00,,,0.00,250.000000,,2013-04-16 16:42:00,
2013-04-16 09:52:00,53.0,40.0,-100.00,NNW,346,1.0,6.0,61,0.00,,,0.00,250.000000,,2013-04-16 16:52:00,
2013-04-16 10:02:00,53.0,40.0,-100.00,NNW,346,1.0,6.0,61,0.00,,,0.00,250.000000,,2013-04-16 17:02:00,
2013-04-16 10:12:00,53.0,40.0,-100.00,NNW,346,1.0,6.0,61,0.00,,,0.00,250.000000,,2013-04-16 17:12:00,
2013-04-16 10:43:00,52.0,37.0,-100.00,WNW,292,3.0,9.0,57,0.00,,,0.00,332.000000,,2013-04-16 17:43:00,
2013-04-16 10:53:00,52.0,37.0,-100.00,WNW,292,3.0,9.0,57,0.00,,,0.00,332.000000,,2013-04-16 17:53:00,
2013-04-16 11:02:00,52.0,37.0,-100.00,WNW,292,3.0,9.0,57,0.00,,,0.00,332.000000,,2013-04-16 18:02:00,
2013-04-16 11:12:00,52.0,37.0,-100.00,WNW,292,3.0,9.0,57,0.00,,,0.00,332.000000,,2013-04-16 18:12:00,
2013-04-16 11:43:00,57.0,39.0,-100.00,East,97,2.0,8.0,51,0.00,,,0.00,448.000000,,2013-04-16 18:43:00,
2013-04-16 11:52:00,57.0,39.0,-100.00,East,97,2.0,8.0,51,0.00,,,0.00,448.000000,,2013-04-16 18:52:00,
2013-04-16 12:02:00,57.0,39.0,-100.00,East,97,2.0,8.0,51,0.00,,,0.00,448.000000,,2013-04-16 19:02:00,
2013-04-16 12:12:00,57.0,39.0,-100.00,East,97,2.0,8.0,51,0.00,,,0.00,448.000000,,2013-04-16 19:12:00,
2013-04-16 12:42:00,57.0,35.0,-100.00,West,266,2.0,12.0,43,0.00,,,0.00,698.000000,,2013-04-16 19:42:00,
2013-04-16 12:52:00,57.0,35.0,-100.00,West,266,2.0,12.0,43,0.00,,,0.00,698.000000,,2013-04-16 19:52:00,
2013-04-16 13:02:00,57.0,35.0,-100.00,West,266,2.0,12.0,43,0.00,,,0.00,698.000000,,2013-04-16 20:02:00,
2013-04-16 13:12:00,57.0,35.0,-100.00,West,266,2.0,12.0,43,0.00,,,0.00,698.000000,,2013-04-16 20:12:00,
2013-04-16 13:32:00,63.0,36.0,-100.00,NNE,30,2.0,11.0,37,0.00,,,-99.99,653.000000,,2013-04-16 20:32:00,
2013-04-16 13:42:00,63.0,36.0,-100.00,NNE,30,2.0,11.0,37,0.00,,,-99.99,653.000000,,2013-04-16 20:42:00,
2013-04-16 13:52:00,63.0,36.0,-100.00,NNE,30,2.0,11.0,37,0.00,,,-99.99,653.000000,,2013-04-16 20:52:00,
2013-04-16 14:02:00,63.0,36.0,-100.00,NNE,30,2.0,11.0,37,0.00,,,-99.99,653.000000,,2013-04-16 21:02:00,
2013-04-16 14:12:00,63.0,36.0,-100.00,NNE,30,2.0,11.0,37,0.00,,,-99.99,653.000000,,2013-04-16 21:12:00,
2013-04-16 14:43:00,62.0,31.0,-100.00,SSE,156,5.0,16.0,31,0.01,,,0.01,887.000000,,2013-04-16 21:43:00,
2013-04-16 14:53:00,62.0,31.0,-100.00,SSE,156,5.0,16.0,31,0.01,,,0.01,887.000000,,2013-04-16 21:53:00,
2013-04-16 15:02:00,62.0,31.0,-100.00,SSE,156,5.0,16.0,31,0.01,,,0.01,887.000000,,2013-04-16 22:02:00,
2013-04-16 15:12:00,62.0,31.0,-100.00,SSE,156,5.0,16.0,31,0.01,,,0.01,887.000000,,2013-04-16 22:12:00,
2013-04-16 15:43:00,59.0,33.0,-100.00,WNW,288,1.0,11.0,38,0.00,,,0.01,272.000000,,2013-04-16 22:43:00,
2013-04-16 15:52:00,59.0,33.0,-100.00,WNW,288,1.0,11.0,38,0.00,,,0.01,272.000000,,2013-04-16 22:52:00,
2013-04-16 16:02:00,59.0,33.0,-100.00,WNW,288,1.0,11.0,38,0.00,,,0.01,272.000000,,2013-04-16 23:02:00,
2013-04-16 16:12:00,59.0,33.0,-100.00,WNW,288,1.0,11.0,38,0.00,,,0.01,272.000000,,2013-04-16 23:12:00,
2013-04-16 16:32:00,59.0,34.0,-100.00,West,281,6.0,11.0,39,0.00,,,0.01,213.000000,,2013-04-16 23:32:00,
2013-04-16 16:43:00,59.0,34.0,-100.00,West,281,6.0,11.0,39,0.00,,,0.01,213.000000,,2013-04-16 23:43:00,
2013-04-16 16:52:00,59.0,34.0,-100.00,West,281,6.0,11.0,39,0.00,,,0.01,213.000000,,2013-04-16 23:52:00,
2013-04-16 17:02:00,59.0,34.0,-100.00,West,281,6.0,11.0,39,0.00,,,0.01,213.000000,,2013-04-17 00:02:00,
2013-04-16 17:12:00,59.0,34.0,-100.00,West,281,6.0,11.0,39,0.00,,,0.01,213.000000,,2013-04-17 00:12:00,
2013-04-16 17:42:00,59.0,39.0,-100.00,West,269,10.0,18.0,47,0.00,,,0.01,280.000000,,2013-04-17 00:42:00,
2013-04-16 17:52:00,59.0,39.0,-100.00,West,269,10.0,18.0,47,0.00,,,0.01,280.000000,,2013-04-17 00:52:00,
2013-04-16 18:02:00,59.0,39.0,-100.00,West,269,10.0,18.0,47,0.00,,,0.01,280.000000,,2013-04-17 01:02:00,
2013-04-16 18:12:00,59.0,39.0,-100.00,West,269,10.0,18.0,47,0.00,,,0.01,280.000000,,2013-04-17 01:12:00,
2013-04-16 18:32:00,56.0,40.0,-100.00,WSW,251,4.0,19.0,55,0.00,,,0.01,113.000000,,2013-04-17 01:32:00,
2013-04-16 18:42:00,56.0,40.0,-100.00,WSW,251,4.0,19.0,55,0.00,,,0.01,113.000000,,2013-04-17 01:42:00,
2013-04-16 18:52:00,56.0,40.0,-100.00,WSW,251,4.0,19.0,55,0.00,,,0.01,113.000000,,2013-04-17 01:52:00,
2013-04-16 19:02:00,56.0,40.0,-100.00,WSW,251,4.0,19.0,55,0.00,,,0.01,113.000000,,2013-04-17 02:02:00,
2013-04-16 19:11:00,56.0,40.0,-100.00,WSW,251,4.0,19.0,55,0.00,,,0.01,113.000000,,2013-04-17 02:11:00,
2013-04-16 19:42:00,52.0,39.0,-100.00,NNW,345,1.0,11.0,60,0.00,,,0.01,18.000000,,2013-04-17 02:42:00,
2013-04-16 19:52:00,52.0,39.0,-100.00,NNW,345,1.0,11.0,60,0.00,,,0.01,18.000000,,2013-04-17 02:52:00,
2013-04-16 20:02:00,52.0,39.0,-100.00,NNW,345,1.0,11.0,60,0.00,,,0.01,18.000000,,2013-04-17 03:02:00,
2013-04-16 20:12:00,52.0,39.0,-100.00,NNW,345,1.0,11.0,60,0.00,,,0.01,18.000000,,2013-04-17 03:12:00,
2013-04-16 20:42:00,52.0,40.0,-100.00,ESE,121,0.0,5.0,64,0.00,,,0.01,0.000000,,2013-04-17 03:42:00,
2013-04-16 20:53:00,52.0,40.0,-100.00,ESE,121,0.0,5.0,64,0.00,,,0.01,0.000000,,2013-04-17 03:53:00,
2013-04-16 21:03:00,52.0,40.0,-100.00,ESE,121,0.0,5.0,64,0.00,,,0.01,0.000000,,2013-04-17 04:03:00,
2013-04-16 21:12:00,52.0,40.0,-100.00,ESE,121,0.0,5.0,64,0.00,,,0.01,0.000000,,2013-04-17 04:12:00,
2013-04-16 21:42:00,48.0,38.0,-100.00,South,172,2.0,4.0,69,0.00,,,0.01,0.000000,,2013-04-17 04:42:00,
2013-04-16 21:52:00,48.0,38.0,-100.00,South,172,2.0,4.0,69,0.00,,,0.01,0.000000,,2013-04-17 04:52:00,
2013-04-16 22:02:00,48.0,38.0,-100.00,South,172,2.0,4.0,69,0.00,,,0.01,0.000000,,2013-04-17 05:02:00,
2013-04-16 22:12:00,48.0,38.0,-100.00,South,172,2.0,4.0,69,0.00,,,0.01,0.000000,,2013-04-17 05:12:00,
2013-04-16 22:32:00,42.0,37.0,-100.00,ESE,110,0.0,4.0,81,0.00,,,0.01,0.000000,,2013-04-17 05:32:00,
2013-04-16 22:43:00,42.0,37.0,-100.00,ESE,110,0.0,4.0,81,0.00,,,0.01,0.000000,,2013-04-17 05:43:00,
2013-04-16 22:52:00,42.0,37.0,-100.00,ESE,110,0.0,4.0,81,0.00,,,0.01,0.000000,,2013-04-17 05:52:00,
2013-04-16 23:02:00,42.0,37.0,-100.00,ESE,110,0.0,4.0,81,0.00,,,0.01,0.000000,,2013-04-17 06:02:00,
2013-04-16 23:12:00,42.0,37.0,-100.00,ESE,110,0.0,4.0,81,0.00,,,0.01,0.000000,,2013-04-17 06:12:00,
2013-04-16 23:32:00,42.0,37.0,-100.00,East,85,1.0,6.0,83,0.00,,,0.01,0.000000,,2013-04-17 06:32:00,
2013-04-16 23:42:00,42.0,37.0,-100.00,East,85,1.0,6.0,83,0.00,,,0.01,0.000000,,2013-04-17 06:42:00,
2013-04-16 23:52:00,42.0,37.0,-100.00,East,85,1.0,6.0,83,0.00,,,0.01,0.000000,,2013-04-17 06:52:00,